Flag for U.S.A. Weather past 2 weeks in San Bernardino, California, U.S.A.

Now
61 °F

Overcast.


Feels Like: 61 °F
Forecast: 51 / 67 °F
Wind: 9 mph from West

Location: Riverside Municipal Airport

Current Time: Apr 21, 2015 at 8:52:37 PM

Latest Report: Apr 21, 2015 at 7:53 PM


Visibility: 10 mi

Pressure: 29.84 "Hg

Humidity: 54%

Dew point: 44 °F

Location of San BernardinoLocation

Historic Weather in San Bernardino — Graph

°F

San Bernardino temperature yesterday

Maximum temperature yesterday: 78 °F (at 2:53 PM)
Minimum temperature yesterday: 53 °F (at 4:53 AM)
Average temperature yesterday: 62 °F

Past Weeks' High & Low Weather Summary

 TemperatureHumidityPressure
High85 °F (Apr 17, 1:53 PM)93% (Apr 8, 4:53 AM)30.07 "Hg (Apr 8, 4:53 AM)
Low45 °F (Apr 7, 6:53 AM)5% (Apr 15, 5:53 PM)29.76 "Hg (Apr 20, 3:53 PM)
Average64 °F47%29.93 "Hg
* Reported Apr 6 6:53 PM — Apr 21 6:53 PM, San Bernardino, Weather by CustomWeather, © 2015

Note: Actual official high and low records may vary slightly from our data, if they occured in-between our weather recording intervals... More about our weather records

Advertising

San Bernardino weather history for previous 24 hours

 ConditionsComfort  
Time TempWeatherWind HumidityBarometerVisibility
6:53 PM
Tue, Apr 21
63 °FOvercast.10 mph52%29.83 "Hg10 mi
5:53 PM64 °FOvercast.8 mph50%29.83 "Hg10 mi
4:53 PM66 °FOvercast.6 mph49%29.83 "Hg10 mi
3:53 PM67 °FOvercast.6 mph47%29.85 "Hg10 mi
2:53 PM66 °FOvercast.N/A49%29.87 "Hg10 mi
1:53 PM64 °FOvercast.No wind54%29.90 "Hg10 mi
12:53 PM62 °FOvercast.3 mph60%29.91 "Hg10 mi
11:53 AM62 °FOvercast.8 mph58%29.92 "Hg10 mi
10:53 AM62 °FOvercast.7 mph58%29.92 "Hg10 mi
9:53 AM60 °FOvercast.3 mph65%29.92 "Hg10 mi
8:53 AM58 °FOvercast.3 mph70%29.91 "Hg10 mi
7:53 AM57 °FOvercast.3 mph72%29.90 "Hg10 mi
6:53 AM57 °FOvercast.5 mph72%29.89 "Hg10 mi
5:53 AM57 °FOvercast.3 mph78%29.87 "Hg10 mi
4:53 AM57 °FOvercast.No wind74%29.85 "Hg10 mi
3:53 AM57 °FMostly cloudy.3 mph74%29.85 "Hg10 mi
2:53 AM57 °FMostly cloudy.No wind78%29.85 "Hg10 mi
1:53 AM56 °FOvercast.No wind77%29.86 "Hg10 mi
12:53 AM56 °FClear.5 mph77%29.87 "Hg10 mi
11:53 PM
Mon, Apr 20
56 °FClear.No wind77%29.87 "Hg10 mi
10:53 PM57 °FClear.5 mph74%29.87 "Hg10 mi
9:53 PM58 °FClear.5 mph70%29.87 "Hg10 mi
8:53 PM59 °FClear.6 mph69%29.85 "Hg10 mi
Weather by CustomWeather, © 2015

See weather overviewHow to use our weather pages